Weather History for KP58 - April, 2013

Change the Weather History Date:

Thursday, April 25, 2013

  Actual Average Record
Temperature  
Mean Temperature 40 °F -  
Max Temperature 48 °F 51 °F 77 °F (2008)
Min Temperature 33 °F 36 °F 28 °F (2015)
Degree Days  
Heating Degree Days 24    
Moisture  
Dew Point 30 °F    
Average Humidity 68    
Maximum Humidity 86    
Minimum Humidity 47    
Precipitation  
Precipitation 0.06 in - - ()
Sea Level Pressure  
Sea Level Pressure 30.12 in    
Wind  
Wind Speed 6 mph (WSW)    
Max Wind Speed 15 mph    
Max Gust Speed 28 mph    
Averages and records for this station are not official NWS values.
T = Trace of Precipitation, MM = Missing Value Source: NWS Daily Summary

Daily Weather History Graph

Daily Weather History Graph

Search for Another Location

Airport or City:

Trip Planner

Search our weather history database for the weather conditions in past years. The results will help you decide how hot, cold, wet, or windy it might be!

Date:

Astronomy

Apr. 25, 2013 Rise Set
Actual Time 6:31 AM EDT 8:27 PM EDT
Civil Twilight 6:00 AM EDT 8:58 PM EDT
Nautical Twilight 5:22 AM EDT 9:36 PM EDT
Astronomical Twilight 4:40 AM EDT 10:18 PM EDT
Moon 8:40 PM EDT (4/25) 6:13 AM EDT (4/25)
Length of Visible Light 14h 58m
Length of Day
13h 56m
Full, 100% of the Moon is Illuminated
Apr 25
Full
Apr 25
Full
May 2
Last Quarter
May 9
New
May 18
First Quarter

Hourly Weather History & Observations

Time (EDT) Temp. Windchill Dew Point Humidity Pressure Visibility Wind Dir Wind Speed Gust Speed Precip Events Conditions
12:51 AM 33.1 °F 28.7 °F 28.0 °F 82% 30.08 in - WSW 4.6 mph - N/A   Unknown
1:51 AM 33.1 °F 28.7 °F 26.1 °F 75% 30.08 in - SW 4.6 mph - N/A   Unknown
2:51 AM 34.0 °F 29.8 °F 26.1 °F 73% 30.07 in - SW 4.6 mph - N/A   Unknown
3:51 AM 34.0 °F 31.0 °F 26.1 °F 73% 30.06 in - SW 3.5 mph - N/A   Unknown
4:51 AM 35.1 °F 30.1 °F 26.1 °F 70% 30.05 in - SSW 5.8 mph - N/A   Unknown
5:51 AM 35.1 °F 31.0 °F 26.1 °F 70% 30.05 in - Variable 4.6 mph - N/A   Unknown
6:51 AM 36.0 °F 30.3 °F 27.0 °F 70% 30.06 in - SSW 6.9 mph - N/A   Unknown
7:51 AM 39.0 °F 34.8 °F 28.0 °F 65% 30.05 in - Variable 5.8 mph - N/A   Unknown
8:51 AM 39.9 °F 35.8 °F 28.9 °F 65% 30.05 in - Variable 5.8 mph - N/A   Unknown
9:51 AM 44.1 °F 39.5 °F 30.9 °F 60% 30.04 in - South 8.1 mph - N/A   Unknown
10:51 AM 45.0 °F 39.3 °F 30.9 °F 58% 30.04 in - SW 11.5 mph 17.3 mph N/A   Unknown
11:51 AM 43.0 °F 37.7 °F 35.1 °F 74% 30.06 in - WSW 9.2 mph 20.7 mph N/A   Unknown
12:51 PM 39.9 °F 33.9 °F 36.0 °F 86% 30.07 in - SW 9.2 mph 20.7 mph 0.04 in   Unknown
1:51 PM 42.1 °F 35.7 °F 36.0 °F 79% 30.07 in - SW 11.5 mph 19.6 mph N/A   Unknown
2:51 PM 45.0 °F 40.1 °F 37.0 °F 74% 30.08 in - West 9.2 mph 19.6 mph 0.01 in   Unknown
3:51 PM 45.0 °F 38.5 °F 34.0 °F 65% 30.10 in - West 13.8 mph 21.9 mph 0.01 in   Unknown
4:51 PM 48.9 °F - 32.0 °F 52% 30.12 in - WNW 10.4 mph 19.6 mph N/A   Unknown
5:51 PM 46.9 °F - 30.0 °F 52% 30.16 in - WNW 15.0 mph 27.6 mph N/A   Unknown
6:51 PM 46.0 °F 41.9 °F 28.0 °F 50% 30.20 in - WNW 8.1 mph 20.7 mph N/A   Unknown
7:51 PM 44.1 °F 40.1 °F 25.0 °F 47% 30.21 in - WNW 6.9 mph - N/A   Unknown
8:51 PM 41.0 °F - 28.0 °F 60% 30.24 in - Calm Calm - N/A   Unknown
9:51 PM 37.0 °F 33.3 °F 28.9 °F 73% 30.27 in - WSW 4.6 mph - N/A   Unknown
10:51 PM 37.0 °F 34.5 °F 28.9 °F 73% 30.30 in - WSW 3.5 mph - N/A   Unknown
11:51 PM 35.1 °F 32.2 °F 28.0 °F 76% 30.31 in - WSW 3.5 mph - N/A   Unknown